TimeCDT,TemperatureF,Dew PointF,Humidity,Sea Level PressureIn,VisibilityMPH,Wind Direction,Wind SpeedMPH,Gust SpeedMPH,PrecipitationIn,Events,Conditions,WindDirDegrees,DateUTC
12:53 AM,60.1,46.9,62,30.16,10.0,Calm,Calm,-,N/A,,Overcast,0,2014-03-09 06:53:00
1:53 AM,59.0,46.0,62,30.16,10.0,Calm,Calm,-,N/A,,Overcast,0,2014-03-09 07:53:00
3:53 AM,55.9,46.9,72,30.16,10.0,Calm,Calm,-,N/A,,Scattered Clouds,0,2014-03-09 08:53:00
4:53 AM,55.0,46.9,74,30.16,10.0,Calm,Calm,-,N/A,,Clear,0,2014-03-09 09:53:00
5:53 AM,55.0,46.9,74,30.15,10.0,East,3.5,-,N/A,,Mostly Cloudy,100,2014-03-09 10:53:00
6:53 AM,55.9,46.9,72,30.17,10.0,Calm,Calm,-,N/A,,Clear,0,2014-03-09 11:53:00
7:53 AM,55.0,46.9,74,30.21,10.0,Calm,Calm,-,N/A,,Clear,0,2014-03-09 12:53:00
8:53 AM,57.9,46.9,67,30.22,10.0,ENE,3.5,-,N/A,,Clear,60,2014-03-09 13:53:00
9:53 AM,60.1,46.9,62,30.23,10.0,ENE,5.8,-,N/A,,Clear,70,2014-03-09 14:53:00
10:53 AM,64.9,46.0,50,30.22,10.0,East,4.6,-,N/A,,Clear,90,2014-03-09 15:53:00
11:53 AM,68.0,46.0,45,30.22,10.0,Calm,Calm,-,N/A,,Scattered Clouds,0,2014-03-09 16:53:00
12:53 PM,70.0,46.0,42,30.22,10.0,Variable,4.6,-,N/A,,Mostly Cloudy,0,2014-03-09 17:53:00
1:53 PM,71.1,46.0,41,30.19,10.0,Calm,Calm,-,N/A,,Mostly Cloudy,0,2014-03-09 18:53:00
2:53 PM,71.1,46.0,41,30.17,10.0,Variable,3.5,-,N/A,,Partly Cloudy,0,2014-03-09 19:53:00
3:53 PM,70.0,46.9,44,30.15,10.0,Calm,Calm,-,N/A,,Partly Cloudy,0,2014-03-09 20:53:00
4:53 PM,70.0,46.9,44,30.14,10.0,West,3.5,-,N/A,,Partly Cloudy,280,2014-03-09 21:53:00
5:53 PM,71.1,46.9,42,30.12,10.0,Variable,3.5,-,N/A,,Clear,0,2014-03-09 22:53:00
6:53 PM,64.9,50.0,58,30.13,10.0,NW,9.2,-,N/A,,Clear,310,2014-03-09 23:53:00
7:53 PM,60.1,48.9,67,30.16,9.0,NNW,5.8,-,N/A,,Clear,340,2014-03-10 00:53:00
8:53 PM,57.9,48.0,70,30.18,8.0,NNW,3.5,-,N/A,,Clear,330,2014-03-10 01:53:00
9:53 PM,55.9,48.0,75,30.19,7.0,NW,3.5,-,N/A,,Clear,320,2014-03-10 02:53:00
10:53 PM,54.0,48.0,80,30.18,5.0,Calm,Calm,-,N/A,,Haze,0,2014-03-10 03:53:00
11:53 PM,52.0,48.0,86,30.18,4.0,NNW,3.5,-,N/A,,Clear,330,2014-03-10 04:53:00
12:53 AM,51.1,46.9,86,30.17,3.0,Calm,Calm,-,N/A,,Clear,0,2014-03-10 05:53:00